Location: Proctor
(47.8934°N, 114.3048°W)
Time: 21:02:06
(UTC+00:00)

Tiros 1 despin weight - Pass Details

Date: 03 July 2024
Orbit: 576 x 620 km, 48.2° (Epoch: 19 July)

Event Time Altitude Azimuth Distance (km) Brightness Sun altitude
Rises 19:30:26 0° 281° (WNW) 2,885 ? 64.9°
Reaches altitude 10° 19:32:44 10° 280° (W) 1,983 ? 64.9°
Maximum altitude 19:37:18 75° 196° (SSW) 646 ? 65.0°
Drops below altitude 10° 19:41:51 10° 112° (ESE) 1,984 ? 65.0°
Sets 19:44:10 0° 110° (ESE) 2,887 ? 65.0°
